Temp
-14 -13 -13 -13 -13 -13 -13 -13 -13 -13 -13 -13 -13 -13 -14 -14 -14 -14 -14 -14 -14 -14 -14 -14 -14 -14 -14 -14 -14 -14 -14 -14
-14 -13 -13 -14 -14 -13 -13 -13 -13 -13 -13 -14 -14 -14 -14 -14 -15 -15 -15 -15 -15 -14 -14 -14 -14 -14 -14 -14 -14 -13 -14 -14
-14 -14 -14 -14 -14 -13 -13 -13 -14 -14 -14 -14 -14 -15 -15 -15 -14 -15 -15 -15 -15 -15 -15 -15 -15 -14 -14 -14 -14 -14 -14 -14
-14 -14 -14 -13 -13 -13 -13 -14 -14 -14 -14 -14 -15 -15 -15 -15 -15 -15 -15 -15 -15 -15 -15 -15 -15 -15 -15 -15 -15 -15 -14 -14
-14 -14 -13 -13 -14 -14 -14 -14 -14 -14 -15 -15 -15 -16 -15 -15 -15 -15 -15 -15 -15 -15 -15 -15 -15 -15 -15 -15 -15 -15 -15 -15
-13 -13 -13 -13 -14 -14 -14 -14 -14 -14 -15 -15 -15 -15 -15 -15 -15 -15 -15 -15 -15 -15 -15 -15 -15 -15 -16 -16 -16 -16 -16 -16
-13 -13 -14 -14 -14 -14 -14 -15 -15 -15 -16 -16 -16 -16 -15 -15 -15 -15 -15 -15 -15 -15 -15 -16 -16 -16 -16 -16 -16 -16 -16 -16
-13 -14 -14 -14 -14 -15 -15 -15 -15 -16 -16 -16 -16 -16 -15 -15 -16 -16 -16 -16 -16 -16 -16 -16 -16 -16 -16 -16 -16 -16 -16 -16
-14 -15 -15 -15 -15 -15 -15 -16 -16 -16 -15 -16 -16 -16 -16 -16 -16 -16 -16 -16 -16 -16 -16 -16 -16 -16 -17 -17 -16 -16 -16 -16
-14 -15 -15 -15 -15 -15 -15 -15 -15 -16 -17 -16 -16 -16 -16 -16 -16 -16 -17 -17 -17 -17 -17 -17 -16 -16 -16 -16 -16 -16 -16 -16
-14 -15 -15 -15 -15 -14 -15 -15 -16 -16 -16 -16 -16 -16 -16 -16 -16 -17 -17 -17 -17 -17 -17 -16 -16 -16 -16 -16 -16 -16 -16 -16
-15 -15 -15 -15 -14 -15 -15 -16 -16 -16 -16 -16 -16 -16 -16 -17 -17 -17 -17 -17 -17 -17 -17 -17 -17 -17 -17 -17 -17 -17 -17 -17
-13 -14 -14 -14 -16 -15 -15 -16 -16 -16 -17 -17 -17 -17 -17 -17 -17 -17 -17 -17 -17 -18 -18 -18 -18 -18 -18 -18 -19 -19 -19 -19
-14 -15 -14 -15 -15 -15 -15 -16 -16 -17 -16 -16 -17 -17 -17 -17 -17 -18 -18 -19 -19 -18 -18 -18 -19 -19 -19 -19 -19 -19 -19 -19
-15 -15 -15 -15 -15 -16 -16 -16 -17 -17 -18 -18 -18 -18 -18 -18 -19 -19 -19 -18 -18 -18 -18 -19 -19 -19 -19 -19 -19 -19 -19 -20
-15 -15 -16 -16 -16 -16 -16 -17 -17 -18 -18 -18 -18 -19 -19 -19 -18 -18 -18 -18 -18 -18 -18 -18 -19 -19 -19 -20 -20 -20 -20 -21
-16 -16 -16 -16 -16 -17 -16 -17 -17 -18 -18 -19 -19 -18 -18 -18 -18 -18 -18 -18 -18 -19 -19 -19 -20 -20 -20 -21 -21 -21 -22 -23
-17 -16 -16 -16 -16 -16 -17 -18 -18 -18 -18 -18 -18 -18 -18 -18 -18 -18 -18 -19 -19 -19 -20 -20 -21 -21 -22 -22 -22 -23 -24 -26
-16 -16 -16 -16 -17 -17 -18 -18 -18 -18 -18 -18 -18 -18 -18 -18 -18 -19 -19 -19 -20 -20 -21 -21 -22 -22 -22 -23 -25 -26 -28 -29
-16 -16 -17 -17 -17 -18 -18 -18 -18 -18 -18 -18 -18 -18 -18 -18 -19 -19 -20 -20 -21 -21 -22 -22 -23 -23 -25 -26 -28 -29 -30 -31
Height
5837 5838 5838 5839 5839 5839 5841 5841 5841 5840 5839 5838 5837 5836 5834 5832 5831 5830 5827 5825 5823 5821 5819 5818 5815 5813 5812 5810 5808 5806 5804 5803
5835 5836 5836 5836 5837 5838 5839 5839 5837 5837 5836 5835 5834 5833 5831 5828 5826 5824 5821 5819 5817 5815 5813 5811 5809 5807 5806 5803 5802 5801 5798 5796
5832 5833 5833 5834 5835 5836 5836 5836 5835 5834 5833 5832 5831 5829 5827 5825 5821 5819 5817 5815 5812 5810 5808 5805 5803 5801 5798 5796 5794 5793 5791 5790
5830 5831 5832 5833 5833 5833 5833 5832 5832 5830 5830 5829 5826 5825 5823 5820 5817 5815 5813 5811 5808 5805 5802 5800 5797 5794 5791 5789 5787 5785 5784 5782
5829 5830 5830 5831 5831 5830 5830 5828 5827 5826 5825 5823 5820 5819 5817 5815 5813 5810 5808 5805 5802 5799 5795 5792 5790 5787 5784 5781 5780 5778 5776 5774
5828 5828 5829 5828 5828 5827 5827 5825 5824 5823 5820 5819 5816 5814 5812 5810 5807 5804 5800 5797 5794 5791 5788 5784 5782 5779 5776 5775 5773 5771 5769 5767
5826 5826 5825 5826 5826 5823 5821 5821 5820 5817 5815 5814 5812 5809 5807 5804 5801 5797 5793 5790 5786 5781 5779 5776 5773 5771 5769 5767 5766 5763 5761 5759
5822 5821 5822 5822 5820 5817 5816 5814 5812 5812 5811 5808 5804 5802 5800 5796 5793 5789 5785 5782 5777 5773 5770 5767 5764 5762 5759 5758 5756 5754 5752 5750
5820 5820 5820 5818 5815 5813 5810 5806 5807 5804 5803 5800 5798 5794 5790 5787 5782 5779 5776 5771 5767 5764 5761 5758 5755 5753 5751 5749 5746 5743 5741 5739
5818 5817 5814 5812 5811 5807 5803 5801 5800 5796 5796 5794 5790 5786 5780 5776 5772 5767 5764 5760 5758 5755 5752 5749 5745 5743 5740 5737 5734 5731 5728 5725
5814 5812 5811 5808 5804 5798 5795 5792 5791 5791 5787 5783 5778 5773 5769 5764 5760 5756 5754 5751 5748 5745 5741 5738 5734 5730 5726 5723 5719 5716 5712 5708
5811 5809 5807 5805 5796 5790 5788 5785 5783 5781 5777 5772 5768 5763 5758 5754 5751 5747 5744 5741 5736 5732 5728 5723 5719 5715 5711 5706 5701 5696 5691 5687
5804 5801 5799 5782 5781 5782 5780 5776 5773 5768 5766 5763 5759 5755 5751 5746 5742 5738 5733 5727 5721 5716 5711 5706 5701 5697 5692 5686 5681 5675 5671 5665
5791 5790 5792 5785 5779 5776 5772 5768 5764 5760 5758 5755 5750 5745 5740 5736 5731 5725 5718 5712 5707 5702 5696 5690 5684 5677 5671 5664 5657 5652 5648 5639
5794 5790 5786 5781 5776 5771 5766 5761 5757 5753 5747 5742 5738 5734 5729 5724 5719 5713 5707 5701 5695 5688 5681 5673 5664 5655 5647 5638 5630 5623 5615 5608
5787 5784 5779 5775 5770 5765 5760 5755 5751 5745 5740 5735 5731 5726 5721 5715 5708 5701 5694 5687 5679 5670 5661 5651 5642 5633 5623 5613 5602 5592 5584 5579
5778 5775 5771 5767 5763 5758 5753 5747 5741 5736 5731 5726 5721 5715 5709 5701 5694 5686 5678 5669 5660 5650 5639 5628 5618 5608 5598 5588 5579 5566 5551 5538
5770 5767 5762 5759 5754 5749 5743 5737 5732 5727 5721 5716 5709 5703 5695 5687 5679 5670 5660 5650 5640 5630 5620 5608 5598 5586 5574 5560 5546 5534 5520 5505
5763 5759 5754 5750 5745 5739 5733 5727 5722 5716 5710 5703 5696 5689 5681 5672 5664 5654 5644 5633 5622 5612 5599 5585 5571 5556 5541 5528 5513 5501 5493 5484
5756 5751 5746 5741 5734 5729 5723 5718 5712 5705 5698 5691 5682 5674 5666 5657 5647 5638 5626 5614 5601 5587 5573 5557 5544 5529 5515 5502 5491 5481 5474 5467
Wind_Speed
12 13 11 10 8 7 9 10 12 14 16 18 19 22 24 25 26 27 27 28 28 28 27 28 29 27 27 27 28 30 30 30
11 10 11 9 8 9 11 13 14 17 17 20 22 24 23 24 25 27 29 30 31 31 31 32 33 33 33 32 30 30 31 31
11 10 7 7 9 11 13 15 16 18 19 22 21 22 26 29 29 28 29 30 31 34 36 36 34 35 36 36 35 32 29 29
6 6 6 9 12 13 15 16 19 20 21 23 24 23 27 30 31 32 30 32 36 38 38 37 34 35 36 36 36 34 32 30
5 7 8 11 13 14 17 19 20 23 24 24 25 27 28 29 33 35 35 39 41 39 38 36 35 33 32 33 34 33 33 32
6 9 12 13 16 19 21 25 26 28 23 23 26 28 31 32 31 37 38 42 43 41 39 38 37 34 32 32 32 32 30 30
8 11 13 16 20 22 23 25 28 29 25 24 28 30 30 33 40 41 39 41 44 43 42 40 37 35 33 32 32 33 32 31
11 15 18 21 22 24 28 28 29 24 25 26 26 29 38 45 42 42 43 45 45 44 43 41 38 35 35 34 35 35 35 36
17 19 21 25 28 30 30 29 24 27 28 30 30 43 44 47 48 46 45 44 42 41 40 39 37 36 37 39 41 43 44 46
18 21 23 26 31 33 29 25 23 27 35 38 42 47 47 49 50 47 44 40 38 36 37 40 42 43 46 48 51 52 54 56
22 23 25 28 32 28 17 28 26 41 41 48 53 54 52 51 48 44 40 36 37 41 44 46 49 52 55 58 60 62 64 66
19 20 21 27 27 24 32 44 39 40 47 51 56 53 49 47 44 40 39 43 46 49 53 56 58 61 64 67 69 71 72 74
21 21 24 28 24 47 48 46 47 50 52 56 55 48 44 41 41 44 47 52 55 58 62 64 65 67 68 70 72 73 74 76
26 22 32 45 49 49 49 51 52 54 59 57 48 44 43 46 49 53 57 59 61 63 64 66 68 72 75 78 80 81 81 84
27 35 42 43 46 48 51 50 53 61 56 54 51 51 52 54 56 57 59 62 64 67 69 73 78 81 84 88 91 93 94 96
33 40 40 43 46 48 45 52 57 50 49 51 53 54 55 56 58 60 63 66 70 74 79 84 86 89 91 94 95 101 105 107
33 39 42 42 49 47 57 52 50 51 51 53 54 56 58 60 63 65 71 75 78 82 86 90 91 93 98 97 101 106 111 106
37 40 44 49 49 51 50 48 50 52 53 54 56 58 60 64 67 72 76 80 84 88 91 92 93 96 98 103 106 105 91 84
37 40 43 46 47 49 49 50 51 53 54 57 59 60 63 68 72 77 81 85 88 91 91 95 98 102 106 104 93 77 69 64
33 37 40 43 47 49 51 53 53 54 57 58 60 64 68 73 78 82 85 88 92 93 97 100 104 104 96 78 66 61 57 49
Wind_Direction
255 242 217 203 206 217 239 252 262 275 280 285 288 291 296 301 304 304 304 301 299 300 302 303 302 299 294 293 295 295 293 288
236 212 204 213 225 244 259 268 276 279 283 285 290 295 302 309 309 307 304 299 297 298 304 305 303 299 297 295 293 291 289 286
189 192 204 230 253 264 270 278 282 283 286 287 292 304 307 306 303 305 308 309 303 302 304 303 300 297 294 292 292 292 290 285
182 210 235 253 266 274 276 277 284 287 287 292 296 300 305 303 304 303 303 304 304 301 302 300 297 294 292 290 290 289 285 284
246 259 268 267 267 276 278 279 282 289 284 287 291 297 303 305 304 304 297 297 301 300 299 298 295 291 288 287 286 284 284 285
248 250 253 266 277 284 291 287 286 289 285 289 294 298 304 300 303 305 301 300 299 298 296 293 289 288 286 285 283 280 279 281
264 273 285 290 291 289 289 282 277 275 280 292 297 300 303 304 305 308 301 299 298 297 296 294 290 288 286 284 283 281 281 280
283 286 288 288 286 282 278 273 269 267 286 301 298 304 308 309 308 305 301 300 300 297 295 293 291 289 289 287 285 282 280 279
287 290 292 291 281 277 274 257 270 254 298 320 305 307 309 309 308 305 302 300 298 296 293 291 290 290 288 286 286 284 283 281
281 280 283 284 281 272 268 255 306 325 320 315 314 312 310 308 304 302 302 301 296 293 292 292 291 291 290 290 289 288 286 284
277 278 276 279 265 276 269 291 311 318 316 317 318 314 310 307 306 303 301 297 296 296 297 297 296 296 295 293 291 290 288 286
279 281 280 285 267 283 306 315 314 315 318 319 316 312 310 305 302 300 299 301 301 301 302 301 300 300 299 298 296 294 292 290
280 265 264 281 301 307 307 311 313 319 317 314 311 307 302 300 300 301 303 305 307 307 306 306 304 303 300 299 297 295 292 290
275 300 288 301 308 307 308 311 311 310 308 309 310 309 307 307 308 308 308 307 305 305 305 304 304 303 303 302 299 298 295 292
285 294 303 303 305 305 306 306 306 308 311 313 312 310 308 308 306 302 301 303 304 304 303 303 304 305 305 303 301 300 297 296
299 297 296 293 300 297 297 301 304 309 308 305 303 301 300 298 299 302 303 305 306 306 307 307 305 305 305 304 303 302 300 297
297 297 286 291 286 285 303 306 309 308 304 299 295 295 297 300 303 304 307 307 307 307 308 308 306 305 304 303 302 302 301 299
288 285 286 297 297 301 305 304 302 299 295 295 297 301 303 305 307 307 307 308 309 308 307 305 304 303 304 305 306 305 300 294
305 304 306 307 306 304 300 298 297 297 298 300 303 304 306 308 307 308 308 307 307 308 306 306 307 309 311 311 308 300 298 296
309 308 305 301 298 297 295 296 298 299 301 304 305 307 308 309 310 309 308 309 309 310 311 311 311 312 312 307 304 301 299 299